カタログに戻る

ARIANE 2 DEB

運用中GTO
NORAD 27650·DEBRIS·🇫🇷 France

打ち上げ Jan 27, 1989 から Guiana Space Centre

Loading…

TLE

古いSource: Space-Track

元期: Sep 10, 2026, 02:16 UTC

1 27650U 89006AE  26253.09453960 -.00000025  00000-0  47481-3 0  9992
2 27650   8.1011 220.3010 7180559 138.5527 306.9154  2.33375895210104

AllMySatでARIANE 2 DEBをリアルタイム追跡

Download on the App Store